Weather History for KBQK - November, 2012

Change the Weather History Date:

Wednesday, November 14, 2012

  Actual Average Record
Temperature  
Mean Temperature 58 °F -  
Max Temperature 60 °F 68 °F 84 °F (1955)
Min Temperature 57 °F 47 °F 32 °F (1975)
Degree Days  
Heating Degree Days 6    
Growing Degree Days 8 (Base 50)    
Moisture  
Dew Point 56 °F    
Average Humidity 90    
Maximum Humidity 100    
Minimum Humidity 82    
Precipitation  
Precipitation 0.00 in - - ()
Sea Level Pressure  
Sea Level Pressure 30.26 in    
Wind  
Wind Speed 8 mph (NNE)    
Max Wind Speed 14 mph    
Max Gust Speed 21 mph    
Visibility 9 miles    
Events Thunderstorm    
Averages and records for this station are not official NWS values.
T = Trace of Precipitation, MM = Missing Value Source: NWS Daily Summary

Daily Weather History Graph

Daily Weather History Graph

Search for Another Location

Airport or City:

Trip Planner

Search our weather history database for the weather conditions in past years. The results will help you decide how hot, cold, wet, or windy it might be!

Date:

Astronomy

Nov. 14, 2012 Rise Set
Actual Time 6:52 AM EST 5:27 PM EST
Civil Twilight 6:27 AM EST 5:53 PM EST
Nautical Twilight 5:57 AM EST 6:22 PM EST
Astronomical Twilight 5:29 AM EST 6:51 PM EST
Moon 7:37 AM EST (11/14) 6:18 PM EST (11/14)
Length of Visible Light 11h 26m
Length of Day
10h 34m
New Moon, 1% of the Moon is Illuminated
Nov 14
New Moon
Nov 20
First Quarter
Nov 28
Full
Dec 6
Last Quarter
Dec 13
New

Hourly Weather History & Observations

Time (EST) Temp. Dew Point Humidity Pressure Visibility Wind Dir Wind Speed Gust Speed Precip Events Conditions
12:15 AM 60.8 °F 59.0 °F 94% 30.24 in 10.0 mi NNE 8.1 mph 16.1 mph N/A   Overcast
12:35 AM 60.8 °F 57.2 °F 88% 30.24 in 10.0 mi NNE 6.9 mph - N/A   Overcast
12:55 AM 60.8 °F 57.2 °F 88% 30.24 in 10.0 mi NNE 9.2 mph - N/A   Overcast
1:15 AM 59.0 °F 57.2 °F 94% 30.24 in 10.0 mi NNE 8.1 mph - N/A   Overcast
1:35 AM 59.0 °F 57.2 °F 94% 30.24 in 10.0 mi NNE 9.2 mph - N/A   Overcast
1:55 AM 59.0 °F 55.4 °F 88% 30.23 in 10.0 mi NNE 10.4 mph - N/A   Overcast
2:15 AM 59.0 °F 55.4 °F 88% 30.23 in 10.0 mi NNE 8.1 mph - N/A   Overcast
2:35 AM 59.0 °F 55.4 °F 88% 30.23 in 10.0 mi NNE 8.1 mph - N/A   Overcast
2:55 AM 59.0 °F 55.4 °F 88% 30.23 in 10.0 mi NNE 8.1 mph - N/A   Overcast
3:15 AM 59.0 °F 57.2 °F 94% 30.23 in 7.0 mi NNE 4.6 mph - N/A   Overcast
3:35 AM 59.0 °F 57.2 °F 94% 30.24 in 7.0 mi NNE 6.9 mph - N/A   Overcast
3:55 AM 59.0 °F 57.2 °F 94% 30.24 in 7.0 mi North 4.6 mph - N/A   Overcast
4:15 AM 59.0 °F 57.2 °F 94% 30.25 in 7.0 mi NNE 5.8 mph - N/A   Overcast
4:35 AM 59.0 °F 57.2 °F 94% 30.25 in 7.0 mi NNE 5.8 mph - N/A   Overcast
4:55 AM 59.0 °F 57.2 °F 94% 30.25 in 5.0 mi NNE 6.9 mph - N/A   Overcast
5:15 AM 59.0 °F 57.2 °F 94% 30.25 in 5.0 mi NNE 6.9 mph - N/A   Overcast
5:35 AM 59.0 °F 57.2 °F 94% 30.25 in 5.0 mi NNE 6.9 mph - N/A   Overcast
5:55 AM 59.0 °F 57.2 °F 94% 30.26 in 5.0 mi NNE 6.9 mph - N/A   Overcast
6:15 AM 59.0 °F 57.2 °F 94% 30.26 in 7.0 mi NNE 8.1 mph - N/A   Overcast
6:35 AM 59.0 °F 57.2 °F 94% 30.26 in 5.0 mi NNE 6.9 mph - N/A   Overcast
6:55 AM 59.0 °F 57.2 °F 94% 30.26 in 5.0 mi NNE 8.1 mph - N/A   Overcast
7:15 AM 59.0 °F 57.2 °F 94% 30.28 in 4.0 mi NE 6.9 mph - N/A   Overcast
7:35 AM 59.0 °F 57.2 °F 94% 30.29 in 2.5 mi NNE 6.9 mph - N/A   Overcast
7:55 AM 59.0 °F 57.2 °F 94% 30.30 in 2.5 mi NNE 8.1 mph - N/A   Overcast
8:15 AM 59.0 °F 57.2 °F 94% 30.30 in 3.0 mi NE 9.2 mph - N/A   Overcast
8:35 AM 59.0 °F 59.0 °F 100% 30.30 in 2.5 mi NE 9.2 mph 16.1 mph N/A   Overcast
8:55 AM 59.0 °F 57.2 °F 94% 30.31 in 5.0 mi NE 13.8 mph - N/A   Overcast
9:15 AM 59.0 °F 57.2 °F 94% 30.31 in 10.0 mi NE 12.7 mph 19.6 mph N/A   Overcast
9:35 AM 59.0 °F 59.0 °F 100% 30.32 in 10.0 mi NE 13.8 mph 19.6 mph N/A   Overcast
9:55 AM 59.0 °F 57.2 °F 94% 30.31 in 10.0 mi NE 11.5 mph 19.6 mph N/A   Overcast
10:15 AM 59.0 °F 59.0 °F 100% 30.31 in 7.0 mi NE 11.5 mph 17.3 mph N/A   Overcast
10:35 AM 60.8 °F 59.0 °F 94% 30.30 in 10.0 mi NNE 10.4 mph 17.3 mph N/A   Overcast
10:55 AM 59.0 °F 57.2 °F 94% 30.30 in 10.0 mi NNE 11.5 mph 19.6 mph N/A Thunderstorm Overcast
11:15 AM 60.8 °F 57.2 °F 88% 30.30 in 10.0 mi NE 12.7 mph 17.3 mph N/A   Overcast
11:35 AM 60.8 °F 57.2 °F 88% 30.29 in 10.0 mi NE 10.4 mph 17.3 mph N/A   Overcast
11:55 AM 59.0 °F 55.4 °F 88% 30.29 in 10.0 mi NNE 11.5 mph 20.7 mph N/A   Overcast
12:15 PM 59.0 °F 55.4 °F 88% 30.29 in 10.0 mi NNE 8.1 mph 16.1 mph N/A   Overcast
12:35 PM 59.0 °F 55.4 °F 88% 30.28 in 10.0 mi NNE 12.7 mph 18.4 mph N/A   Overcast
12:55 PM 59.0 °F 55.4 °F 88% 30.28 in 10.0 mi NNE 10.4 mph 16.1 mph N/A   Overcast
1:15 PM 59.0 °F 55.4 °F 88% 30.28 in 10.0 mi NNE 9.2 mph - N/A   Overcast
1:35 PM 59.0 °F 55.4 °F 88% 30.27 in 10.0 mi NNE 9.2 mph 16.1 mph N/A   Overcast
1:55 PM 59.0 °F 55.4 °F 88% 30.26 in 10.0 mi NE 9.2 mph - N/A   Overcast
2:15 PM 59.0 °F 55.4 °F 88% 30.25 in 10.0 mi NNE 12.7 mph 19.6 mph N/A   Overcast
2:35 PM 59.0 °F 55.4 °F 88% 30.24 in 10.0 mi NE 9.2 mph - N/A   Overcast
2:55 PM 59.0 °F 55.4 °F 88% 30.24 in 10.0 mi NE 9.2 mph - N/A   Overcast
3:15 PM 59.0 °F 53.6 °F 82% 30.24 in 10.0 mi NE 10.4 mph 17.3 mph N/A   Overcast
3:35 PM 57.2 °F 53.6 °F 88% 30.24 in 10.0 mi NNE 8.1 mph - N/A   Overcast
3:55 PM 57.2 °F 53.6 °F 88% 30.24 in 10.0 mi NNE 8.1 mph 16.1 mph N/A   Overcast
4:15 PM 57.2 °F 53.6 °F 88% 30.24 in 10.0 mi NNE 9.2 mph - N/A   Overcast
4:35 PM 57.2 °F 53.6 °F 88% 30.24 in 10.0 mi NE 8.1 mph - N/A   Overcast
4:55 PM 57.2 °F 53.6 °F 88% 30.24 in 10.0 mi NE 10.4 mph 19.6 mph N/A   Overcast
5:15 PM 57.2 °F 53.6 °F 88% 30.24 in 10.0 mi NE 10.4 mph - N/A   Overcast
5:35 PM 57.2 °F 53.6 °F 88% 30.25 in 10.0 mi NNE 9.2 mph - N/A   Overcast
5:55 PM 57.2 °F 53.6 °F 88% 30.25 in 10.0 mi NNE 8.1 mph - N/A   Overcast
6:15 PM 59.0 °F 53.6 °F 82% 30.25 in 10.0 mi NNE 6.9 mph - N/A   Overcast
6:35 PM 57.2 °F 53.6 °F 88% 30.25 in 10.0 mi NNE 9.2 mph - N/A   Overcast
6:55 PM 57.2 °F 53.6 °F 88% 30.26 in 10.0 mi North 6.9 mph - N/A   Overcast
7:15 PM 57.2 °F 53.6 °F 88% 30.25 in 10.0 mi NNE 5.8 mph - N/A Thunderstorm Overcast
7:35 PM 57.2 °F 53.6 °F 88% 30.26 in 10.0 mi North 5.8 mph - N/A   Overcast
7:55 PM 57.2 °F 53.6 °F 88% 30.25 in 10.0 mi NNE 4.6 mph - N/A   Overcast
8:15 PM 57.2 °F 53.6 °F 88% 30.25 in 10.0 mi NNW 4.6 mph - N/A   Overcast
8:35 PM 57.2 °F 53.6 °F 88% 30.25 in 10.0 mi NNE 4.6 mph - N/A   Overcast
8:55 PM 57.2 °F 53.6 °F 88% 30.25 in 10.0 mi North 5.8 mph - N/A   Overcast
9:15 PM 57.2 °F 53.6 °F 88% 30.26 in 10.0 mi North 4.6 mph - N/A   Overcast
9:35 PM 57.2 °F 53.6 °F 88% 30.26 in 10.0 mi NNE 5.8 mph - N/A   Overcast
9:55 PM 57.2 °F 53.6 °F 88% 30.25 in 10.0 mi NNE 3.5 mph - N/A   Overcast
10:15 PM 57.2 °F 53.6 °F 88% 30.25 in 10.0 mi North 8.1 mph - N/A   Overcast
10:35 PM 57.2 °F 53.6 °F 88% 30.25 in 10.0 mi North 5.8 mph - N/A   Overcast
10:55 PM 57.2 °F 53.6 °F 88% 30.23 in 10.0 mi NE 4.6 mph - N/A   Overcast
11:15 PM 57.2 °F 53.6 °F 88% 30.23 in 10.0 mi NNE 4.6 mph - N/A   Overcast
11:35 PM 57.2 °F 53.6 °F 88% 30.22 in 10.0 mi NE 5.8 mph - N/A   Overcast
11:55 PM 59.0 °F 53.6 °F 82% 30.21 in 10.0 mi NE 9.2 mph - N/A   Overcast